Colorado Springs, CO

8:03 PM MDT on April 27, 2017 (GMT -0600)
City Of Colorado Springs Municipal

Weather History for KCOS - May, 2013

Change the Weather History Date:

Sunday, May 26, 2013

  Actual Average Record
Temperature  
Mean Temperature 70 °F 59 °F  
Max Temperature 85 °F 72 °F 90 °F (2012)
Min Temperature 54 °F 46 °F 28 °F (1950)
Degree Days  
Heating Degree Days 0 7  
Month to date heating degree days 270 261  
Since 1 July heating degree days 6089 6183  
Cooling Degree Days 5 1  
Month to date cooling degree days 19 2  
Year to date cooling degree days 19 3  
Growing Degree Days 20 (Base 50)    
Moisture  
Dew Point 20 °F    
Average Humidity 25    
Maximum Humidity 44    
Minimum Humidity 5    
Precipitation  
Precipitation 0.00 in 0.08 in 1.63 in (1990)
Month to date precipitation 1.14 1.63  
Year to date precipitation 2.73 4.71  
Snow  
Snow 0.00 in 0.00 in 0.30 in (1950)
Month to date snowfall 1.8 0.7  
Since 1 July snowfall 29.6 37.7  
Snow Depth 0.00 in    
Sea Level Pressure  
Sea Level Pressure 29.69 in    
Wind  
Wind Speed 10 mph (North)    
Max Wind Speed 25 mph    
Max Gust Speed 30 mph    
Visibility 10 miles    
Events      
T = Trace of Precipitation, MM = Missing Value Source: NWS Daily Summary

Daily Weather History Graph

Daily Weather History Graph

Search for Another Location

Airport or City:

Trip Planner

Search our weather history database for the weather conditions in past years. The results will help you decide how hot, cold, wet, or windy it might be!

Date:

Astronomy

May. 26, 2013 Rise Set
Actual Time 5:38 AM MDT 8:13 PM MDT
Civil Twilight 5:07 AM MDT 8:44 PM MDT
Nautical Twilight 4:28 AM MDT 9:23 PM MDT
Astronomical Twilight 3:45 AM MDT 10:06 PM MDT
Moon 10:04 PM MDT (5/26) 7:10 AM MDT (5/26)
Length of Visible Light 15h 37m
Length of Day
14h 35m
Waning Gibbous, 96% of the Moon is Illuminated
May 26
Waning Gibbous
May 31
Last Quarter
Jun 8
New
Jun 16
First Quarter
Jun 23
Full

Hourly Weather History & Observations

Time (MDT) Temp. Dew Point Humidity Pressure Visibility Wind Dir Wind Speed Gust Speed Precip Events Conditions
12:54 AM 66.9 °F 14.0 °F 13% 29.68 in 10.0 mi NNW 15.0 mph - N/A   Scattered Clouds
1:54 AM 66.9 °F 21.0 °F 17% 29.68 in 10.0 mi NW 8.1 mph - N/A   Partly Cloudy
2:54 AM 66.0 °F 27.0 °F 23% 29.69 in 10.0 mi NNW 9.2 mph - N/A   Partly Cloudy
3:54 AM 64.9 °F 28.0 °F 25% 29.71 in 10.0 mi NNW 6.9 mph - N/A   Partly Cloudy
4:54 AM 57.0 °F 21.0 °F 25% 29.75 in 10.0 mi Calm Calm - N/A   Mostly Cloudy
5:54 AM 57.0 °F 23.0 °F 27% 29.75 in 10.0 mi Calm Calm - N/A   Mostly Cloudy
6:54 AM 60.1 °F 30.9 °F 33% 29.76 in 10.0 mi North 5.8 mph - N/A   Scattered Clouds
7:54 AM 70.0 °F 25.0 °F 18% 29.75 in 10.0 mi North 6.9 mph - N/A   Mostly Cloudy
8:54 AM 75.0 °F 25.0 °F 16% 29.75 in 10.0 mi North 5.8 mph - N/A   Mostly Cloudy
9:54 AM 75.9 °F 17.1 °F 11% 29.74 in 10.0 mi Calm Calm - N/A   Mostly Cloudy
10:54 AM 80.1 °F 16.0 °F 9% 29.73 in 10.0 mi Variable 6.9 mph - N/A   Mostly Cloudy
11:54 AM 81.0 °F 10.0 °F 7% 29.71 in 10.0 mi SW 8.1 mph - N/A   Mostly Cloudy
12:54 PM 84.0 °F 10.0 °F 6% 29.68 in 10.0 mi Variable 5.8 mph - N/A   Scattered Clouds
1:54 PM 84.0 °F 14.0 °F 7% 29.66 in 10.0 mi ESE 15.0 mph 19.6 mph N/A   Mostly Cloudy
2:54 PM 82.9 °F 8.1 °F 6% 29.66 in 10.0 mi ESE 13.8 mph 23.0 mph N/A   Mostly Cloudy
3:54 PM 82.0 °F 8.1 °F 6% 29.64 in 10.0 mi SE 12.7 mph 25.3 mph N/A   Mostly Cloudy
4:54 PM 84.0 °F 8.1 °F 6% 29.64 in 10.0 mi SE 23.0 mph 26.5 mph N/A   Mostly Cloudy
5:54 PM 82.0 °F 6.1 °F 6% 29.63 in 10.0 mi SSE 18.4 mph 26.5 mph N/A   Mostly Cloudy
6:54 PM 81.0 °F 7.0 °F 6% 29.63 in 10.0 mi ESE 12.7 mph - N/A   Mostly Cloudy
7:54 PM 75.9 °F 9.0 °F 8% 29.62 in 10.0 mi ESE 6.9 mph - N/A   Mostly Cloudy
8:54 PM 71.1 °F 32.0 °F 24% 29.65 in 10.0 mi North 16.1 mph - N/A   Mostly Cloudy
9:54 PM 69.1 °F 37.0 °F 31% 29.67 in 10.0 mi NW 16.1 mph - N/A   Mostly Cloudy
10:54 PM 68.0 °F 37.0 °F 32% 29.68 in 10.0 mi WNW 13.8 mph - N/A   Partly Cloudy
11:54 PM 64.9 °F 42.1 °F 43% 29.67 in 10.0 mi NW 10.4 mph - N/A   Partly Cloudy